K5GHS-1 Weather Reports


Display with metric or nautical units.
time (UTC)temp
F
wind
direction
speed
MPH
gust
MPH
rain 1hr
in
rain 24hr
in
rain mn
in
humidity
%
barometer
mb
20260510024045 78 82 1.0 2.0 0.00 0.00 0.00 72 1007.6
20260510023541 78 83 0.0 2.0 0.00 0.00 0.00 71 1007.8
20260510023039 78 95 1.0 3.0 0.00 0.00 0.00 70 1007.6
20260510022538 78 82 0.0 3.0 0.00 0.00 0.00 70 1007.7
20260510022032 78 59 3.0 3.0 0.00 0.00 0.00 70 1007.4
20260510021529 78 92 1.0 2.0 0.00 0.00 0.00 70 1007.5
20260510021026 78 87 1.0 2.0 0.00 0.00 0.00 69 1007.5
20260510020521 78 94 1.0 3.0 0.00 0.00 0.00 69 1007.4
20260510020017 79 84 0.0 1.0 0.00 0.00 0.00 69 1007.1
20260510015512 79 83 0.0 3.0 0.00 0.00 0.00 69 1007.2
20260510015008 79 85 0.0 3.0 0.00 0.00 0.00 68 1007.2
20260510014505 79 85 1.0 2.0 0.00 0.00 0.00 68 1007.1
20260510014002 79 95 1.0 1.0 0.00 0.00 0.00 68 1007.2
20260510013456 79 77 1.0 2.0 0.00 0.00 0.00 67 1007.0
20260510012953 80 60 1.0 2.0 0.00 0.00 0.00 67 1007.1
20260510012447 80 84 1.0 1.0 0.00 0.00 0.00 66 1007.1
20260510011943 80 79 0.0 1.0 0.00 0.00 0.00 66 1006.9
20260510011437 80 87 0.0 2.0 0.00 0.00 0.00 65 1006.7
20260510010934 81 79 1.0 3.0 0.00 0.00 0.00 65 1006.5
20260510010432 81 90 0.0 3.0 0.00 0.00 0.00 65 1006.8
20260510005928 81 82 1.0 1.0 0.00 0.00 0.00 64 1006.6
20260510005424 81 86 0.0 2.0 0.00 0.00 0.00 63 1006.3
20260510004921 82 82 0.0 2.0 0.00 0.00 0.00 63 1006.6
20260510004419 82 84 0.0 2.0 0.00 0.00 0.00 62 1006.5
20260510003917 82 91 2.0 2.0 0.00 0.00 0.00 61 1006.4
20260510003414 82 57 1.0 1.0 0.00 0.00 0.00 60 1006.6
20260510002913 83 82 2.0 3.0 0.00 0.00 0.00 59 1006.5
20260510002410 83 93 1.0 5.0 0.00 0.00 0.00 57 1006.6
20260510001906 83 81 3.0 5.0 0.00 0.00 0.00 56 1006.4
20260510001404 83 107 3.0 5.0 0.00 0.00 0.00 56 1006.5
20260510000901 83 91 2.0 2.0 0.00 0.00 0.00 54 1006.6
20260510000357 84 115 2.0 2.0 0.00 0.00 0.00 54 1006.5
20260509235854 84 90 0.0 2.0 0.00 0.00 0.00 54 1006.7
20260509235350 84 79 1.0 3.0 0.00 0.00 0.00 55 1006.6
20260509234847 84 87 0.0 0.0 0.00 0.00 0.00 57 1006.7
20260509234344 84 106 2.0 2.0 0.00 0.00 0.00 56 1006.7
20260509233842 84 85 0.0 1.0 0.00 0.00 0.00 56 1006.6
20260509233339 85 88 1.0 3.0 0.00 0.00 0.00 54 1006.8
20260509232835 85 68 1.0 2.0 0.00 0.00 0.00 54 1006.9
20260509232333 85 55 2.0 5.0 0.00 0.00 0.00 54 1006.8
20260509231829 86 91 1.0 2.0 0.00 0.00 0.00 54 1006.8
20260509231326 85 72 1.0 2.0 0.00 0.00 0.00 54 1006.8
20260509230824 86 66 3.0 5.0 0.00 0.00 0.00 54 1006.8
20260509230320 86 104 1.0 3.0 0.00 0.00 0.00 54 1006.4
20260509225815 86 74 4.0 5.0 0.00 0.00 0.00 54 1006.7
20260509225312 86 127 2.0 3.0 0.00 0.00 0.00 55 1006.6
20260509224808 86 85 0.0 3.0 0.00 0.00 0.00 56 1006.9
20260509224305 87 86 1.0 2.0 0.00 0.00 0.00 55 1006.6
20260509223801 87 117 0.0 1.0 0.00 0.00 0.00 55 1006.8
20260509223259 86 60 3.0 3.0 0.00 0.00 0.00 55 1006.9
20260509222755 86 95 0.0 3.0 0.00 0.00 0.00 57 1006.7
20260509222250 86 108 1.0 1.0 0.00 0.00 0.00 57 1006.7
20260509221747 86 88 0.0 2.0 0.00 0.00 0.00 58 1006.5
20260509221244 86 141 1.0 5.0 0.00 0.00 0.00 58 1006.5
20260509220739 86 121 2.0 6.0 0.00 0.00 0.00 59 1006.4
20260509220236 86 87 2.0 5.0 0.00 0.00 0.00 59 1006.7
20260509215731 86 95 2.0 5.0 0.00 0.00 0.00 59 1006.5
20260509215228 85 149 1.0 2.0 0.00 0.00 0.00 60 1006.6
20260509214725 86 89 1.0 1.0 0.00 0.00 0.00 60 1006.7
20260509214222 87 175 2.0 3.0 0.00 0.00 0.00 59 1006.7
20260509213719 87 66 0.0 1.0 0.00 0.00 0.00 60 1006.7
20260509213214 87 77 1.0 3.0 0.00 0.00 0.00 60 1006.7
20260509212712 87 90 2.0 5.0 0.00 0.00 0.00 58 1007.0
20260509212209 89 113 1.0 3.0 0.00 0.00 0.00 57 1006.9
20260509211705 89 129 1.0 5.0 0.00 0.00 0.00 56 1007.0
20260509211201 87 78 0.0 1.0 0.00 0.00 0.00 59 1007.1
20260509210658 86 103 2.0 6.0 0.00 0.00 0.00 61 1007.1
20260509210150 86 100 1.0 5.0 0.00 0.00 0.00 59 1007.4
20260509205645 87 97 1.0 3.0 0.00 0.00 0.00 58 1007.2
20260509205144 87 109 2.0 2.0 0.00 0.00 0.00 59 1007.3
20260509204641 86 130 2.0 3.0 0.00 0.00 0.00 60 1007.4
20260509204137 85 78 1.0 3.0 0.00 0.00 0.00 62 1007.3
20260509203633 86 79 2.0 5.0 0.00 0.00 0.00 61 1007.3
20260509203132 86 114 2.0 2.0 0.00 0.00 0.00 60 1007.5
20260509202632 87 61 4.0 5.0 0.00 0.00 0.00 61 1007.4
20260509202127 86 99 3.0 3.0 0.00 0.00 0.00 61 1007.6
20260509201622 86 90 1.0 3.0 0.00 0.00 0.00 62 1007.4
20260509201120 86 101 2.0 3.0 0.00 0.00 0.00 62 1007.6
20260509200615 86 59 2.0 5.0 0.00 0.00 0.00 62 1007.6
20260509200111 85 74 0.0 1.0 0.00 0.00 0.00 63 1007.5
20260509195606 86 95 2.0 2.0 0.00 0.00 0.00 62 1007.7
20260509195056 86 44 2.0 5.0 0.00 0.00 0.00 62 1008.0
20260509194555 86 71 0.0 3.0 0.00 0.00 0.00 62 1007.7
20260509194054 87 111 2.0 5.0 0.00 0.00 0.00 60 1007.8
20260509193549 88 63 1.0 5.0 0.00 0.00 0.00 58 1007.8
20260509193045 88 83 1.0 2.0 0.00 0.00 0.00 56 1007.7
20260509192542 88 67 1.0 1.0 0.00 0.00 0.00 59 1008.2
20260509192037 88 352 0.0 2.0 0.00 0.00 0.00 59 1008.2
20260509191531 87 71 0.0 1.0 0.00 0.00 0.00 62 1008.2
20260509191027 86 109 0.0 2.0 0.00 0.00 0.00 60 1008.2
20260509190525 87 63 0.0 2.0 0.00 0.00 0.00 61 1008.2
20260509190023 88 76 0.0 1.0 0.00 0.00 0.00 60 1008.3
20260509185520 87 62 0.0 2.0 0.00 0.00 0.00 58 1008.2
20260509185016 87 74 0.0 0.0 0.00 0.00 0.00 61 1008.2
20260509184515 88 106 0.0 1.0 0.00 0.00 0.00 59 1008.1
20260509184010 88 82 0.0 2.0 0.00 0.00 0.00 58 1008.4
20260509183506 88 64 0.0 0.0 0.00 0.00 0.00 60 1008.5
20260509183002 87 65 0.0 1.0 0.00 0.00 0.00 62 1008.4
20260509182458 88 82 1.0 1.0 0.00 0.00 0.00 59 1008.3
20260509181955 87 59 0.0 0.0 0.00 0.00 0.00 61 1008.4
20260509181454 87 38 0.0 1.0 0.00 0.00 0.00 62 1008.6
20260509180951 87 59 1.0 1.0 0.00 0.00 0.00 61 1008.6
20260509180446 87 92 0.0 1.0 0.00 0.00 0.00 60 1008.7
20260509175943 86 53 1.0 1.0 0.00 0.00 0.00 64 1008.8
20260509175439 86 96 1.0 1.0 0.00 0.00 0.00 64 1008.8
20260509174936 85 65 1.0 3.0 0.00 0.00 0.00 64 1009.0
20260509174432 85 82 1.0 1.0 0.00 0.00 0.00 66 1008.9
20260509173927 85 85 0.0 2.0 0.00 0.00 0.00 69 1009.0
20260509173421 84 81 0.0 0.0 0.00 0.00 0.00 68 1009.1
20260509172918 84 82 0.0 1.0 0.00 0.00 0.00 66 1009.2
20260509172415 84 226 0.0 1.0 0.00 0.00 0.00 67 1009.3
20260509171911 85 70 0.0 0.0 0.00 0.00 0.00 68 1009.0
20260509171407 84 70 0.0 2.0 0.00 0.00 0.00 69 1009.2
20260509170903 83 68 0.0 2.0 0.00 0.00 0.00 69 1009.2
20260509170359 83 77 1.0 2.0 0.00 0.00 0.00 70 1009.2
20260509165855 82 69 0.0 0.0 0.00 0.00 0.00 71 1009.3
20260509165349 83 58 0.0 2.0 0.00 0.00 0.00 70 1009.1
20260509164845 82 69 0.0 1.0 0.00 0.00 0.00 71 1009.3
20260509164341 82 66 0.0 0.0 0.00 0.00 0.00 73 1009.1
20260509163838 81 68 2.0 3.0 0.00 0.00 0.00 73 1009.1
20260509163334 81 67 0.0 2.0 0.00 0.00 0.00 74 1009.1
20260509162833 80 66 0.0 0.0 0.00 0.00 0.00 75 1009.2
20260509162326 80 66 0.0 1.0 0.00 0.00 0.00 76 1009.4
20260509161823 79 63 0.0 1.0 0.00 0.00 0.00 77 1009.1
20260509161320 78 68 0.0 1.0 0.00 0.00 0.00 78 1009.2
20260509160815 78 56 0.0 1.0 0.00 0.00 0.00 79 1009.3
20260509160311 78 66 0.0 1.0 0.00 0.00 0.00 80 1009.3
20260509155806 77 63 0.0 0.0 0.00 0.00 0.00 81 1009.2
20260509155306 77 74 0.0 3.0 0.00 0.00 0.00 81 1009.1
20260509154759 77 53 0.0 1.0 0.00 0.00 0.00 82 1009.4
20260509154256 76 49 0.0 1.0 0.00 0.00 0.00 82 1009.1
20260509153753 76 74 0.0 1.0 0.00 0.00 0.00 82 1009.2
20260509153249 76 71 0.0 0.0 0.00 0.00 0.00 82 1009.0
20260509152746 76 74 0.0 0.0 0.00 0.00 0.00 83 1008.9
20260509152242 75 72 0.0 0.0 0.00 0.00 0.00 84 1009.1
20260509151740 75 71 0.0 2.0 0.00 0.00 0.00 85 1009.1
20260509151236 74 68 0.0 0.0 0.00 0.00 0.00 87 1009.0
20260509150734 74 71 0.0 0.0 0.00 0.00 0.00 87 1009.2
20260509150232 73 47 0.0 1.0 0.00 0.00 0.00 88 1009.1
20260509145728 73 68 0.0 0.0 0.00 0.00 0.00 88 1009.1
20260509145223 73 71 1.0 1.0 0.00 0.00 0.00 88 1009.2
20260509144720 73 60 0.0 3.0 0.00 0.00 0.00 88 1009.1
20260509144217 73 71 0.0 0.0 0.00 0.00 0.00 88 1009.3
20260509143714 73 72 1.0 2.0 0.00 0.00 0.00 87 1009.1
20260509143211 73 356 0.0 1.0 0.00 0.00 0.00 87 1009.0
20260509142707 73 6 0.0 1.0 0.00 0.00 0.00 87 1009.0
20260509142204 73 70 0.0 1.0 0.00 0.00 0.00 88 1009.0
20260509141659 73 72 0.0 0.0 0.00 0.00 0.00 88 1008.9
20260509141156 73 70 0.0 1.0 0.00 0.00 0.00 89 1009.0
20260509140653 73 68 0.0 1.0 0.00 0.00 0.00 90 1008.9
20260509140151 73 72 0.0 0.0 0.00 0.00 0.00 91 1008.8
20260509135648 73 73 0.0 0.0 0.00 0.00 0.00 92 1008.7
20260509135146 72 77 0.0 1.0 0.00 0.00 0.00 92 1008.7
20260509134642 72 62 1.0 1.0 0.00 0.00 0.00 93 1008.9
20260509134140 72 70 0.0 0.0 0.00 0.00 0.00 93 1008.7
20260509133637 71 68 0.0 0.0 0.00 0.00 0.00 94 1008.5
20260509133134 71 74 0.0 0.0 0.00 0.00 0.00 94 1008.7
20260509132632 71 72 0.0 0.0 0.00 0.00 0.00 94 1008.5
20260509132130 71 74 0.0 0.0 0.00 0.00 0.00 94 1008.8
20260509131626 71 79 0.0 0.0 0.00 0.00 0.00 94 1008.5
20260509131123 71 71 0.0 0.0 0.00 0.00 0.00 95 1008.6
20260509130619 70 71 0.0 0.0 0.00 0.00 0.00 95 1008.6
20260509130116 70 74 0.0 1.0 0.00 0.00 0.00 95 1008.6
20260509125612 70 79 0.0 1.0 0.00 0.00 0.00 95 1008.3
20260509125109 70 87 0.0 1.0 0.00 0.00 0.00 95 1008.4
20260509124605 70 76 0.0 0.0 0.00 0.00 0.00 95 1008.4
20260509124103 70 76 0.0 0.0 0.00 0.00 0.00 95 1008.7
20260509123600 70 76 0.0 0.0 0.00 0.00 0.00 95 1008.6
20260509123057 70 73 0.0 0.0 0.00 0.00 0.00 95 1008.4
20260509122553 70 72 0.0 0.0 0.00 0.00 0.00 95 1008.4
20260509122050 69 78 0.0 0.0 0.00 0.00 0.00 95 1008.4
20260509121546 69 78 0.0 0.0 0.00 0.00 0.00 95 1008.1
20260509121048 69 78 0.0 0.0 0.00 0.00 0.00 95 1008.5
20260509120542 69 81 0.0 0.0 0.00 0.00 0.00 95 1008.2
20260509120041 69 74 0.0 0.0 0.00 0.00 0.00 95 1008.2
20260509115537 69 81 0.0 1.0 0.00 0.00 0.00 95 1008.3
20260509115035 69 75 0.0 0.0 0.00 0.00 0.00 95 1008.2
20260509114533 69 83 0.0 0.0 0.00 0.00 0.00 95 1007.8
20260509114032 69 81 0.0 1.0 0.00 0.00 0.00 94 1008.0
20260509113529 69 83 0.0 0.0 0.00 0.00 0.00 94 1007.7
20260509113027 69 83 0.0 0.0 0.00 0.00 0.00 94 1007.8
20260509112523 69 83 0.0 1.0 0.00 0.00 0.00 94 1007.7
20260509112020 69 79 0.0 1.0 0.00 0.00 0.00 94 1007.6
20260509111517 69 83 0.0 1.0 0.00 0.00 0.00 94 1007.4
20260509111014 69 92 1.0 1.0 0.00 0.00 0.00 94 1007.3
20260509110511 69 88 0.0 1.0 0.00 0.00 0.00 94 1007.5
20260509110008 69 79 0.0 1.0 0.00 0.00 0.00 94 1007.2
20260509105506 69 83 0.0 0.0 0.00 0.00 0.00 94 1007.4
20260509105004 69 77 0.0 0.0 0.00 0.00 0.00 94 1007.3
20260509104500 69 89 0.0 1.0 0.00 0.00 0.00 94 1007.2
20260509103957 69 82 0.0 1.0 0.00 0.00 0.00 94 1007.2
20260509103455 69 79 0.0 1.0 0.00 0.00 0.00 94 1007.1
20260509102953 69 71 0.0 1.0 0.00 0.00 0.00 94 1007.1
20260509102450 69 85 0.0 1.0 0.00 0.00 0.00 94 1006.7
20260509101946 69 89 1.0 1.0 0.00 0.00 0.00 94 1007.0
20260509101443 69 84 0.0 1.0 0.00 0.00 0.00 94 1006.9
20260509100940 69 81 1.0 3.0 0.00 0.00 0.00 93 1006.8
20260509100437 69 85 0.0 1.0 0.00 0.00 0.00 93 1006.8
20260509095934 69 76 2.0 3.0 0.00 0.00 0.00 93 1006.7
20260509095431 69 112 2.0 2.0 0.00 0.00 0.00 93 1006.9
20260509094928 69 87 0.0 1.0 0.00 0.00 0.00 93 1006.7
20260509094424 69 92 2.0 3.0 0.00 0.00 0.00 93 1006.8
20260509093922 69 67 0.0 0.0 0.00 0.00 0.00 93 1007.0
20260509093419 69 67 0.0 1.0 0.00 0.00 0.00 93 1006.9
20260509092918 69 68 0.0 0.0 0.00 0.00 0.00 93 1006.9
20260509092415 69 69 0.0 0.0 0.00 0.00 0.00 93 1006.9
20260509091914 69 74 0.0 0.0 0.00 0.00 0.00 93 1007.0
20260509091410 69 75 0.0 0.0 0.00 0.00 0.00 93 1006.7
20260509090907 69 89 1.0 1.0 0.00 0.00 0.00 93 1006.5
20260509090404 69 78 0.0 0.0 0.00 0.00 0.00 93 1006.5
20260509085902 69 71 0.0 0.0 0.00 0.00 0.00 93 1006.2
20260509085359 69 71 1.0 5.0 0.00 0.00 0.00 93 1005.8
20260509084855 69 78 1.0 3.0 0.00 0.00 0.00 93 1006.0
20260509084352 69 80 1.0 5.0 0.00 0.00 0.00 93 1005.8
20260509083849 69 88 3.0 3.0 0.00 0.00 0.00 93 1006.2
20260509083346 69 122 3.0 3.0 0.00 0.00 0.00 93 1006.3
20260509082843 69 76 1.0 5.0 0.00 0.00 0.00 93 1006.2
20260509082340 69 92 1.0 2.0 0.00 0.00 0.00 93 1006.4
20260509081837 69 92 1.0 2.0 0.00 0.00 0.00 93 1006.5
20260509081334 69 83 1.0 3.0 0.00 0.00 0.00 93 1006.4
20260509080832 69 85 1.0 1.0 0.00 0.00 0.00 92 1006.9
20260509080330 69 87 1.0 2.0 0.00 0.00 0.00 92 1007.0
20260509075828 69 81 0.0 2.0 0.00 0.00 0.00 92 1006.8
20260509075324 69 79 2.0 3.0 0.00 0.00 0.00 92 1007.3
20260509074822 69 88 1.0 2.0 0.00 0.00 0.00 91 1007.6
20260509074319 69 88 2.0 2.0 0.00 0.00 0.00 91 1008.0
20260509073815 69 82 1.0 1.0 0.00 0.00 0.00 91 1008.2
20260509073312 70 82 2.0 3.0 0.00 0.00 0.00 90 1008.3
20260509072808 70 92 2.0 2.0 0.00 0.00 0.00 90 1008.5
20260509072306 70 83 0.0 1.0 0.00 0.00 0.00 90 1008.6
20260509071802 70 61 1.0 1.0 0.00 0.00 0.00 90 1008.6
20260509071259 70 85 1.0 1.0 0.00 0.00 0.00 90 1008.6
20260509070756 70 74 0.0 0.0 0.00 0.00 0.00 90 1008.7
20260509070252 70 74 0.0 0.0 0.00 0.00 0.00 90 1008.7
20260509065749 70 74 0.0 0.0 0.00 0.00 0.00 90 1008.6
20260509065245 69 75 0.0 0.0 0.00 0.00 0.00 90 1009.0
20260509064741 70 74 0.0 0.0 0.00 0.00 0.00 89 1008.9
20260509064239 70 78 0.0 0.0 0.00 0.00 0.00 89 1008.9
20260509063736 70 65 0.0 1.0 0.00 0.00 0.00 89 1008.7
20260509063232 70 72 0.0 1.0 0.00 0.00 0.00 89 1008.3
20260509062730 70 84 0.0 0.0 0.00 0.00 0.00 89 1008.1
20260509062227 70 83 0.0 1.0 0.00 0.00 0.00 88 1008.0
20260509061724 70 88 0.0 1.0 0.00 0.00 0.00 88 1007.8
20260509061221 70 81 0.0 1.0 0.00 0.00 0.00 88 1007.8
20260509060719 70 83 0.0 1.0 0.00 0.00 0.00 88 1007.8
20260509060215 70 84 0.0 0.0 0.00 0.00 0.00 87 1007.7
20260509055711 70 100 0.0 1.0 0.00 0.00 0.00 87 1008.1
20260509055207 70 97 1.0 1.0 0.00 0.00 0.00 87 1008.4
20260509054703 70 94 1.0 1.0 0.00 0.00 0.00 87 1008.2
20260509054201 70 89 0.0 1.0 0.00 0.00 0.00 88 1008.6
20260509053659 70 85 0.0 0.0 0.00 0.00 0.00 88 1008.8
20260509053155 70 78 0.0 0.0 0.00 0.00 0.00 88 1009.0
20260509052654 70 89 0.0 0.0 0.00 0.00 0.00 88 1008.9
20260509052151 70 88 0.0 1.0 0.00 0.00 0.00 88 1009.1
20260509051649 70 71 0.0 0.0 0.00 0.00 0.00 88 1009.2
20260509051146 70 87 0.0 0.0 0.00 0.00 0.00 88 1008.8
20260509050643 70 86 0.0 0.0 0.00 0.00 0.00 88 1009.0
20260509050139 70 100 0.0 1.0 0.00 0.00 0.00 88 1009.5
20260509045637 70 72 0.0 0.0 0.00 1.16 1.16 87 1009.6
20260509045133 70 81 0.0 0.0 0.00 1.16 1.16 86 1009.4
20260509044631 70 72 0.0 0.0 0.00 1.16 1.16 86 1009.0
20260509044128 70 72 0.0 0.0 0.00 1.16 1.16 86 1008.6
20260509043624 71 75 0.0 1.0 0.00 1.16 1.16 86 1008.3
20260509043120 71 79 0.0 1.0 0.00 1.16 1.16 85 1008.2
20260509042617 71 84 0.0 1.0 0.00 1.16 1.16 85 1008.2
20260509042112 71 81 0.0 1.0 0.00 1.16 1.16 85 1008.3
20260509041610 71 74 0.0 2.0 0.00 1.16 1.16 85 1008.1
20260509041107 71 67 2.0 2.0 0.00 1.16 1.16 84 1007.7
20260509040606 71 83 1.0 3.0 0.00 1.16 1.16 84 1007.5
20260509035559 71 105 0.0 5.0 0.00 1.16 1.16 84 1008.0
20260509035055 71 83 1.0 3.0 0.00 1.16 1.16 84 1007.2
20260509034553 72 99 1.0 2.0 0.00 1.16 1.16 83 1007.4
20260509034050 72 102 2.0 3.0 0.00 1.16 1.16 82 1008.0
20260509033547 72 104 1.0 1.0 0.00 1.16 1.16 82 1008.7
20260509033044 72 79 0.0 0.0 0.00 1.16 1.16 82 1009.2
20260509032542 72 77 0.0 0.0 0.00 1.16 1.16 81 1009.2
20260509032038 72 77 0.0 0.0 0.00 1.16 1.16 81 1009.1
20260509031536 72 75 0.0 0.0 0.00 1.16 1.16 81 1008.6
20260509031033 72 75 0.0 0.0 0.00 1.16 1.16 81 1008.4
20260509030531 72 73 0.0 0.0 0.00 1.16 1.16 81 1008.6
20260509030028 71 81 0.0 0.0 0.00 1.16 1.16 81 1008.7
20260509025524 71 71 0.0 1.0 0.00 1.16 1.16 81 1008.4
20260509025020 71 78 0.0 0.0 0.00 1.16 1.16 81 1008.6